Regional Weather Roundup
Issued by NWS

Home | Current Version | Previous Version | Graphics & Text | Print | Product List | Glossary On
Versions: 1 2 3 4 5 6 7 8 9 10 11 12 13 14 15 16 17 18 19 20 21 22 23 24 25 26 27 28 29 30 31 32 33 34 35 36 37 38 39 40 41 42 43 44 45 46 47 48 49 50
000
ASUS43 KBIS 291602
RWRND

NORTH DAKOTA REGIONAL WEATHER ROUNDUP
NATIONAL WEATHER SERVICE BISMARCK ND
1100 AM CDT SAT AUG 29 2015

NOTE: "FAIR" INDICATES FEW OR NO CLOUDS BELOW 12,000 FEET WITH NO
SIGNIFICANT WEATHER AND/OR OBSTRUCTIONS TO VISIBILITY.


NDZ001>003-009>011-017-291700-
NORTHWEST NORTH DAKOTA

CITY           SKY/WX    TMP DP  RH WIND       PRES   REMARKS
WILLISTON      PTSUNNY   72  55  55 S6        29.90F HAZE
MINOT          CLOUDY    74  55  51 S6        29.90S HAZE
MINOT AFB      PTSUNNY   76  57  51 S3        29.89F
$$

NDZ018>021-031>035-040>046-291700-
SOUTHWEST NORTH DAKOTA

CITY           SKY/WX    TMP DP  RH WIND       PRES   REMARKS
BISMARCK       CLOUDY    72  61  68 CALM      29.96S
DICKINSON      SUNNY     86  44  23 S13       29.96S HAZE
GARRISON         N/A     72  60  66 S3        29.94R
HETTINGER ARPT PTSUNNY   83  47  28 S10       30.00S HAZE
$$

NDZ004>008-012>016-024-026-027-054-291700-
NORTHEAST NORTH DAKOTA

CITY           SKY/WX    TMP DP  RH WIND       PRES   REMARKS
GRAND FORKS    MOSUNNY   70  66  87 S8        29.91S
GRND FRKS AFB  MOSUNNY   71  71  99 SW6       29.91S
DEVILS LAKE    MOSUNNY   70  63  78 SW6       29.90F
$$

NDZ022-023-025-028>030-036>039-047>053-291700-
SOUTHEAST NORTH DAKOTA

CITY           SKY/WX    TMP DP  RH WIND       PRES   REMARKS
FARGO          SUNNY     72  63  73 S15       29.95S
JAMESTOWN      SUNNY     73  66  78 SW6       29.94S
$$




USA.gov is the U.S. government's official web portal to all federal, state and local government web resources and services.